Zurück zum Katalog

STARLINK-37501

AktivKommunikationSSO
NORAD 69296·PAYLOAD·🇺🇸 United States

Gestartet May 30, 2026 von Vandenberg Space Force Base

Loading…

Nächste Überflüge (nächste 24 Stunden)

TLE

AktuellSource: CelesTrak SupGP

Epoche: Sep 14, 2026, 20:59 UTC

1 69296C 26119A   26257.87479167  .00038113  00000+0  11836-2 0  2575
2 69296  97.2824 282.6313 0001311  88.2851  45.1116 15.33406784    19

Verfolge STARLINK-37501 in Echtzeit mit AllMySat

Download on the App Store